| time (UTC) | temp C | wind direction | speed KPH | gust KPH | rain 1hr cm | rain 24hr cm | rain mn cm | humidity % | barometer mb |
| 20260905184543 | 17 | 171 | 4.8 | 0.0 | 0.00 | 0.00 | 0.00 | 34 | 1006.6 |
| 20260905183038 | 16 | 136 | 4.8 | 0.0 | 0.00 | 0.00 | 0.00 | 33 | 1006.8 |
| 20260905181526 | 16 | 213 | 4.8 | 0.0 | 0.00 | 0.00 | 0.00 | 27 | 1007.3 |
| 20260905180021 | 16 | 217 | 4.8 | 0.0 | 0.00 | 0.00 | 0.00 | 24 | 1007.3 |
| 20260905174521 | 16 | 136 | 4.8 | 0.0 | 0.00 | 0.00 | 0.00 | 19 | 1007.1 |
| 20260905173019 | 16 | 192 | 3.2 | 0.0 | 0.00 | 0.00 | 0.00 | 15 | 1007.6 |
| 20260905171515 | 15 | 196 | 4.8 | 0.0 | 0.00 | 0.00 | 0.00 | 13 | 1007.5 |
| 20260905170013 | 15 | 116 | 4.8 | 0.0 | 0.00 | 0.00 | 0.00 | 12 | 1007.5 |
| 20260905164513 | 15 | 130 | 3.2 | 0.0 | 0.00 | 0.00 | 0.00 | 14 | 1007.1 |
| 20260905163009 | 15 | 157 | 4.8 | 0.0 | 0.00 | 0.00 | 0.00 | 13 | 1007.0 |
| 20260905161507 | 15 | 117 | 4.8 | 0.0 | 0.00 | 0.00 | 0.00 | 12 | 1007.0 |
| 20260905160006 | 15 | 127 | 3.2 | 0.0 | 0.00 | 0.00 | 0.00 | 13 | 1006.9 |
| 20260905154503 | 14 | 191 | 3.2 | 0.0 | 0.00 | 0.00 | 0.00 | 15 | 1006.8 |
| 20260905153001 | 14 | 195 | 3.2 | 0.0 | 0.00 | 0.00 | 0.00 | 14 | 1006.9 |
| 20260905151624 | 13 | 106 | 3.2 | 0.0 | 0.00 | 0.00 | 0.00 | 15 | 1006.8 |
| 20260905150058 | 13 | 128 | 3.2 | 0.0 | 0.00 | 0.00 | 0.00 | 14 | 1006.7 |
| 20260905144556 | 13 | 195 | 1.6 | 0.0 | 0.00 | 0.00 | 0.00 | 16 | 1006.8 |
| 20260905143055 | 12 | 133 | 1.6 | 0.0 | 0.00 | 0.00 | 0.00 | 17 | 1006.6 |
| 20260905141553 | 12 | 200 | 1.6 | 0.0 | 0.00 | 0.00 | 0.00 | 18 | 1006.5 |
| 20260905140053 | 12 | 179 | 1.6 | 0.0 | 0.00 | 0.00 | 0.00 | 18 | 1006.5 |
| 20260905134553 | 12 | 157 | 3.2 | 0.0 | 0.00 | 0.00 | 0.00 | 17 | 1006.3 |
| 20260905133050 | 12 | 191 | 1.6 | 0.0 | 0.00 | 0.00 | 0.00 | 16 | 1006.0 |
| 20260905131558 | 12 | 198 | 3.2 | 0.0 | 0.00 | 0.00 | 0.00 | 18 | 1005.8 |
| 20260905130048 | 12 | 124 | 1.6 | 0.0 | 0.00 | 0.00 | 0.00 | 20 | 1005.3 |
| 20260905124547 | 12 | 154 | 0.0 | 0.0 | 0.00 | 0.00 | 0.00 | 21 | 1005.2 |
| 20260905123104 | 12 | 148 | 1.6 | 0.0 | 0.00 | 0.00 | 0.00 | 21 | 1005.1 |
| 20260905121544 | 12 | 179 | 1.6 | 0.0 | 0.00 | 0.00 | 0.00 | 21 | 1005.2 |
| 20260905120043 | 12 | 138 | 0.0 | 0.0 | 0.00 | 0.00 | 0.00 | 22 | 1004.6 |
| 20260905114545 | 12 | 152 | 0.0 | 0.0 | 0.00 | 0.00 | 0.00 | 23 | 1004.4 |
| 20260905113041 | 11 | 160 | 0.0 | 0.0 | 0.00 | 0.00 | 0.00 | 25 | 1004.4 |
| 20260905111541 | 12 | 143 | 0.0 | 0.0 | 0.00 | 0.00 | 0.00 | 25 | 1004.6 |
| 20260905110039 | 12 | 172 | 0.0 | 0.0 | 0.00 | 0.00 | 0.00 | 26 | 1004.1 |
| 20260905104539 | 12 | 126 | 0.0 | 0.0 | 0.00 | 0.00 | 0.00 | 26 | 1004.2 |
| 20260905103048 | 11 | 172 | 0.0 | 0.0 | 0.00 | 0.00 | 0.00 | 26 | 1004.1 |
| 20260905101537 | 12 | 138 | 1.6 | 0.0 | 0.00 | 0.00 | 0.00 | 26 | 1004.1 |
| 20260905100049 | 12 | 162 | 0.0 | 0.0 | 0.00 | 0.00 | 0.00 | 27 | 1004.1 |
| 20260905094535 | 12 | 150 | 1.6 | 0.0 | 0.00 | 0.00 | 0.00 | 27 | 1004.1 |
| 20260905093035 | 12 | 184 | 1.6 | 0.0 | 0.00 | 0.00 | 0.00 | 27 | 1004.1 |
| 20260905091541 | 12 | 185 | 0.0 | 0.0 | 0.00 | 0.00 | 0.00 | 28 | 1004.0 |
| 20260905090032 | 11 | 133 | 1.6 | 0.0 | 0.00 | 0.00 | 0.00 | 28 | 1003.6 |
| 20260905084530 | 11 | 200 | 1.6 | 0.0 | 0.00 | 0.00 | 0.00 | 29 | 1003.7 |
| 20260905083031 | 12 | 161 | 1.6 | 0.0 | 0.00 | 0.00 | 0.00 | 29 | 1003.7 |
| 20260905081527 | 12 | 140 | 1.6 | 0.0 | 0.00 | 0.00 | 0.00 | 28 | 1003.9 |
| 20260905080034 | 12 | 124 | 1.6 | 0.0 | 0.00 | 0.00 | 0.00 | 29 | 1003.9 |
| 20260905074528 | 12 | 161 | 1.6 | 0.0 | 0.00 | 0.00 | 0.00 | 28 | 1003.9 |
| 20260905073027 | 12 | 126 | 1.6 | 0.0 | 0.00 | 0.00 | 0.00 | 28 | 1004.0 |
| 20260905071525 | 12 | 148 | 1.6 | 0.0 | 0.00 | 0.00 | 0.00 | 28 | 1003.9 |
| 20260905070031 | 12 | 168 | 0.0 | 0.0 | 0.00 | 0.00 | 0.00 | 28 | 1004.4 |
| 20260905064522 | 12 | 144 | 0.0 | 0.0 | 0.00 | 0.00 | 0.00 | 28 | 1004.5 |
| 20260905063022 | 12 | 167 | 0.0 | 0.0 | 0.00 | 0.00 | 0.00 | 29 | 1004.4 |
| 20260905061524 | 12 | 179 | 0.0 | 0.0 | 0.00 | 0.00 | 0.00 | 28 | 1004.5 |
| 20260905060037 | 12 | 150 | 0.0 | 0.0 | 0.00 | 0.00 | 0.00 | 27 | 1004.5 |
| 20260905054520 | 12 | 126 | 0.0 | 0.0 | 0.00 | 0.00 | 0.00 | 27 | 1004.4 |
| 20260905053019 | 12 | 133 | 0.0 | 0.0 | 0.00 | 0.00 | 0.00 | 27 | 1004.6 |
| 20260905051524 | 12 | 152 | 0.0 | 0.0 | 0.00 | 0.00 | 0.00 | 27 | 1004.6 |
| 20260905050021 | 13 | 131 | 0.0 | 0.0 | 0.00 | 0.00 | 0.00 | 28 | 1005.2 |
| 20260905044521 | 13 | 147 | 0.0 | 0.0 | 0.00 | 0.00 | 0.00 | 26 | 1005.1 |
| 20260905043016 | 13 | 157 | 0.0 | 0.0 | 0.00 | 0.00 | 0.00 | 26 | 1004.9 |
| 20260905041515 | 13 | 152 | 0.0 | 0.0 | 0.00 | 0.00 | 0.00 | 27 | 1004.8 |
| 20260905040014 | 13 | 145 | 0.0 | 0.0 | 0.00 | 0.00 | 0.00 | 28 | 1005.1 |
| 20260905034516 | 13 | 124 | 0.0 | 0.0 | 0.00 | 0.00 | 0.00 | 30 | 1004.9 |
| 20260905033013 | 13 | 164 | 0.0 | 0.0 | 0.00 | 0.00 | 0.00 | 34 | 1004.9 |
| 20260905031517 | 13 | 174 | 0.0 | 0.0 | 0.00 | 0.00 | 0.00 | 35 | 1004.5 |
| 20260905030015 | 13 | 160 | 0.0 | 0.0 | 0.00 | 0.00 | 0.00 | 34 | 1004.6 |
| 20260905024514 | 13 | 150 | 0.0 | 0.0 | 0.00 | 0.00 | 0.00 | 37 | 1004.7 |
| 20260905023015 | 13 | 137 | 0.0 | 0.0 | 0.00 | 0.00 | 0.00 | 40 | 1004.6 |
| 20260905021517 | 13 | 154 | 0.0 | 0.0 | 0.00 | 0.00 | 0.00 | 46 | 1004.4 |
| 20260905020007 | 13 | 193 | 0.0 | 0.0 | 0.00 | 0.00 | 0.00 | 50 | 1004.9 |
| 20260905014508 | 13 | 209 | 1.6 | 0.0 | 0.00 | 0.00 | 0.00 | 51 | 1005.0 |
| 20260905013003 | 13 | 205 | 3.2 | 0.0 | 0.00 | 0.00 | 0.00 | 48 | 1005.1 |
| 20260905011500 | 14 | 203 | 3.2 | 0.0 | 0.00 | 0.00 | 0.00 | 46 | 1004.6 |
| 20260905010100 | 15 | 210 | 4.8 | 0.0 | 0.00 | 0.00 | 0.00 | 42 | 1004.7 |
| 20260905004559 | 15 | 193 | 6.4 | 0.0 | 0.00 | 0.00 | 0.00 | 39 | 1004.9 |
| 20260905003059 | 15 | 278 | 6.4 | 0.0 | 0.00 | 0.00 | 0.00 | 36 | 1004.3 |
| 20260905001608 | 16 | 212 | 6.4 | 0.0 | 0.00 | 0.00 | 0.00 | 33 | 1004.6 |
| 20260904234557 | 16 | 202 | 4.8 | 0.0 | 0.00 | 0.00 | 0.00 | 30 | 1003.9 |
| 20260904233106 | 17 | 136 | 4.8 | 0.0 | 0.00 | 0.00 | 0.00 | 31 | 1004.1 |
| 20260904231556 | 17 | 205 | 4.8 | 0.0 | 0.00 | 0.00 | 0.00 | 28 | 1004.2 |
| 20260904230055 | 17 | 230 | 4.8 | 0.0 | 0.00 | 0.00 | 0.00 | 28 | 1004.3 |
| 20260904224554 | 17 | 208 | 4.8 | 0.0 | 0.00 | 0.00 | 0.00 | 28 | 1004.2 |
| 20260904223057 | 18 | 205 | 3.2 | 0.0 | 0.00 | 0.00 | 0.00 | 27 | 1004.3 |
| 20260904221555 | 17 | 106 | 4.8 | 0.0 | 0.00 | 0.00 | 0.00 | 26 | 1004.3 |
| 20260904220106 | 17 | 116 | 4.8 | 0.0 | 0.00 | 0.00 | 0.00 | 23 | 1004.4 |
| 20260904214553 | 17 | 213 | 4.8 | 0.0 | 0.00 | 0.00 | 0.00 | 26 | 1004.5 |
| 20260904213052 | 17 | 202 | 4.8 | 0.0 | 0.00 | 0.00 | 0.00 | 24 | 1004.5 |
| 20260904211551 | 18 | 220 | 3.2 | 0.0 | 0.00 | 0.00 | 0.00 | 26 | 1004.3 |
| 20260904210056 | 18 | 232 | 3.2 | 0.0 | 0.00 | 0.00 | 0.00 | 23 | 1004.1 |
| 20260904204548 | 18 | 162 | 3.2 | 0.0 | 0.00 | 0.00 | 0.00 | 22 | 1004.1 |
| 20260904203049 | 18 | 210 | 3.2 | 0.0 | 0.00 | 0.00 | 0.00 | 21 | 1004.2 |
| 20260904201558 | 18 | 186 | 3.2 | 0.0 | 0.00 | 0.00 | 0.00 | 23 | 1004.0 |
| 20260904200045 | 18 | 236 | 1.6 | 0.0 | 0.00 | 0.00 | 0.00 | 20 | 1004.0 |
| 20260904194538 | 17 | 131 | 4.8 | 0.0 | 0.00 | 0.00 | 0.00 | 24 | 1004.1 |
| 20260904193035 | 17 | 172 | 3.2 | 0.0 | 0.00 | 0.00 | 0.00 | 24 | 1004.3 |
| 20260904191535 | 17 | 198 | 6.4 | 0.0 | 0.00 | 0.00 | 0.00 | 24 | 1004.3 |
| 20260904190026 | 17 | 220 | 6.4 | 0.0 | 0.00 | 0.00 | 0.00 | 23 | 1005.0 |